Home > Weather > Lhasa > Past weeks

Flag for China Weather for the Past 2 Weeks in Lhasa, Tibet, China

Now
86 °F

Passing clouds.


Feels Like: 83 °F
Forecast: 30 / 59 °F
Wind: 5 mph from North

Location: Kathmandu Airport

Current Time: May 1, 2016 at 2:43:46 PM

Latest Report: May 1, 2016 at 1:50 PM


Visibility: 4 mi

Pressure: 29.89 "Hg (19.80 "Hg at 3654m altitude)

Humidity: 18%

Dew Point: 37 °F

Location of LhasaLocation

Historic Weather in Lhasa — Graph

°F

Lhasa Temperature Yesterday

Maximum temperature yesterday: 88 °F (at 1:50 PM)
Minimum temperature yesterday: 57 °F (at 7:50 AM)
Average temperature yesterday: 75 °F

High & Low Weather Summary for the Past Weeks

 TemperatureHumidityPressure
High90 °F (Apr 20, 2:50 PM)94% (Apr 18, 5:50 AM)30.07 "Hg (Apr 18, 5:50 AM)
Low55 °F (Apr 19, 7:50 AM)7% (Apr 30, 2:50 PM)29.68 "Hg (Apr 23, 6:20 PM)
Average74 °F45%29.91 "Hg
* Reported Apr 16 12:20 PM — May 1 12:20 PM, Lhasa, Weather by CustomWeather, © 2016

Note: Actual official high and low records may vary slightly from our data, if they occured in-between our weather recording intervals... More about our weather records

Advertising

Lhasa Weather History for the Previous 24 Hours

Scroll right to see more
 ConditionsComfort  
Time TempWeatherWind HumidityBarometerVisibility
12:20 PM
Sun, May 1
79 °FHaze.No wind24%29.95 "Hg2 mi
11:50 AM77 °FHaze.2 mph30%29.95 "Hg2 mi
11:20 AM75 °FHaze.2 mph31%29.98 "Hg2 mi
10:20 AM68 °FHaze.3 mph38%29.98 "Hg1 mi
9:50 AM66 °FHaze.2 mph40%29.95 "Hg1 mi
9:20 AM63 °FHaze.3 mph49%29.95 "Hg1 mi
8:50 AM59 °FHaze.3 mph59%29.95 "Hg1 mi
8:20 AM59 °FHaze.2 mph51%29.95 "Hg1 mi
7:50 AM57 °FHaze.5 mph55%29.95 "Hg2 mi
6:50 AM59 °FHaze.5 mph51%29.92 "Hg3 mi
5:50 AM61 °FPassing clouds.3 mph52%29.92 "Hg4 mi
4:50 AM63 °FPassing clouds.3 mph49%29.92 "Hg4 mi
3:50 AM61 °FPassing clouds.3 mph52%29.92 "Hg4 mi
2:50 AM63 °FPassing clouds.6 mph49%29.95 "Hg4 mi
2:20 AM64 °FPassing clouds.2 mph46%29.95 "Hg4 mi
1:50 AM64 °FPassing clouds.5 mph46%29.95 "Hg4 mi
1:20 AM66 °FPassing clouds.3 mph43%29.95 "Hg4 mi
12:50 AM66 °FPassing clouds.6 mph43%29.95 "Hg4 mi
12:20 AM68 °FPassing clouds.7 mph40%29.95 "Hg4 mi
11:50 PM
Sat, Apr 30
70 °FPassing clouds.6 mph38%29.95 "Hg4 mi
11:20 PM72 °FPassing clouds.3 mph36%29.95 "Hg4 mi
10:50 PM75 °FPassing clouds.5 mph27%29.95 "Hg4 mi
10:20 PM77 °FPassing clouds.3 mph24%29.95 "Hg4 mi
9:50 PM79 °FPassing clouds.5 mph23%29.92 "Hg4 mi
9:20 PM79 °FPassing clouds.5 mph23%29.92 "Hg4 mi
8:50 PM81 °FPassing clouds.7 mph21%29.92 "Hg5 mi
8:20 PM82 °FPassing clouds.8 mph20%29.89 "Hg5 mi
7:50 PM84 °FPassing clouds.8 mph18%29.89 "Hg5 mi
7:20 PM84 °FScattered clouds.8 mph19%29.89 "Hg5 mi
6:50 PM84 °FScattered clouds.6 mph20%29.89 "Hg5 mi
6:20 PM86 °FScattered clouds.8 mph17%29.89 "Hg5 mi
5:50 PM86 °FRain. Partly sunny.9 mph13%29.89 "Hg4 mi
5:20 PM84 °FPartly sunny.9 mph13%29.92 "Hg5 mi
4:20 PM88 °FScattered clouds.15 mph10%29.92 "Hg5 mi
3:50 PM88 °FScattered clouds.16 mph10%29.92 "Hg5 mi
3:20 PM88 °FPassing clouds.17 mph8%29.95 "HgN/A
2:50 PM88 °FPassing clouds.16 mph7%29.95 "Hg5 mi
2:20 PM88 °FPassing clouds.12 mph8%29.95 "Hg5 mi
Weather by CustomWeather, © 2016

See weather overviewHow to use our weather pages